Printer-friendly version

IAU Minor Planet Center

Minor Planet Center

MPEC 2000-B03: 2000 AE205

The following Minor Planet Electronic Circular may be linked-to from your own Web pages, but must not otherwise be redistributed electronically.


Read MPEC 2000-B02 Read MPEC 2000-B04


M.P.E.C. 2000-B03                                Issued 2000 Jan. 16, 20:36 UT

     The Minor Planet Electronic Circulars contain information on unusual
         minor planets and routine data on comets.  They are published
   on behalf of Commission 20 of the International Astronomical Union by the
          Minor Planet Center, Smithsonian Astrophysical Observatory,
                          Cambridge, MA 02138, U.S.A.

             Prepared using the Tamkin Foundation Computer Network

             BMARSDEN@CFA.HARVARD.EDU or GWILLIAMS@CFA.HARVARD.EDU
          URL http://cfa-www.harvard.edu/iau/mpc.html  ISSN 1523-6714

                                  2000 AE205

Observations:
     K00AK5E* C2000 01 08.23285 06 24 27.15 +03 30 12.8          18.4        704
     K00AK5E  C2000 01 08.24847 06 24 27.70 +03 29 33.3          18.4        704
     K00AK5E  C2000 01 08.26355 06 24 28.23 +03 28 56.1          18.5        704
     K00AK5E  C2000 01 08.27872 06 24 28.77 +03 28 18.5          18.4        704
     K00AK5E  C2000 01 08.29381 06 24 29.34 +03 27 40.9          18.6        704
     K00AK5E  C2000 01 09.06185 06 25 30.72 +02 56 23.2          18.3 R      046
     K00AK5E  C2000 01 09.06288 06 25 30.70 +02 56 21.1                      046
     K00AK5E  C2000 01 09.06404 06 25 30.83 +02 56 18.7                      046
     K00AK5E  C2000 01 09.06507 06 25 30.93 +02 56 15.1                      046
     K00AK5E  C2000 01 09.14945 06 25 47.58 +02 53 29.2          18.5        704
     K00AK5E  C2000 01 09.16851 06 25 48.43 +02 52 46.2          18.6        704
     K00AK5E  C2000 01 09.18886 06 25 49.27 +02 51 59.0          19.1        704
     K00AK5E  C2000 01 09.20370 06 25 49.79 +02 51 24.1          18.5        704
     K00AK5E  C2000 01 09.21847 06 25 50.37 +02 50 51.8          18.8        704
     K00AK5E  C2000 01 09.23322 06 25 50.85 +02 50 18.1          18.3        704
     K00AK5E  C2000 01 09.24840 06 25 51.38 +02 49 43.6          18.6        704
     K00AK5E  C2000 01 09.26340 06 25 51.90 +02 49 09.2          18.7        704
     K00AK5E  C2000 01 09.27619 06 25 52.03 +02 48 47.4                      711
     K00AK5E  C2000 01 09.27840 06 25 52.39 +02 48 34.8          18.5        704
     K00AK5E  C2000 01 09.28071 06 25 52.11 +02 48 36.5                      711
     K00AK5E  C2000 01 09.28515 06 25 52.24 +02 48 26.0                      711
     K00AK5E  C2000 01 10.23781 06 27 11.82 +02 13 37.5          18.3        704
     K00AK5E  C2000 01 10.25280 06 27 12.29 +02 13 05.5          18.2        704
     K00AK5E  C2000 01 10.25842 06 27 12.12 +02 13 02.0                      711
     K00AK5E  C2000 01 10.26331 06 27 12.32 +02 12 50.0                      711
     K00AK5E  C2000 01 10.26759 06 27 12.77 +02 12 34.0          18.5        704
     K00AK5E  C2000 01 10.26824 06 27 12.39 +02 12 39.8                      711
     K00AK5E  C2000 01 10.28235 06 27 13.26 +02 12 04.1          18.0        704
     K00AK5E IC2000 01 11.21594 06 28 29.90 +01 40 59.8                      651
     K00AK5E  C2000 01 11.22271 06 28 30.08 +01 40 47.3          18.9 V      651
     K00AK5E  C2000 01 11.22301 06 28 29.60 +01 40 42.7          18.4        704
     K00AK5E  C2000 01 11.25290 06 28 30.58 +01 39 45.8          18.6        704
     K00AK5E  C2000 01 11.25732 06 28 30.39 +01 39 44.3                      711
     K00AK5E  C2000 01 11.26241 06 28 30.49 +01 39 33.3                      711
     K00AK5E  C2000 01 11.26743 06 28 30.64 +01 39 24.1                      711
     K00AK5E  C2000 01 11.26793 06 28 31.02 +01 39 16.9          18.5        704
     K00AK5E  C2000 01 11.28274 06 28 31.50 +01 38 49.1          18.9        704
     K00AK5E  C2000 01 11.46789 06 28 50.23 +01 35 17.5          19.0 R      422
     K00AK5E  C2000 01 11.46890 06 28 50.26 +01 35 16.0          19.2 R      422
     K00AK5E  C2000 01 11.47220 06 28 50.33 +01 35 10.2                      422
     K00AK5E  C2000 01 11.47878 06 28 50.57 +01 34 57.7          18.9 R      422
     K00AK5E  C2000 01 11.92087 06 29 21.32 +01 18 41.4                      557
     K00AK5E  C2000 01 11.92308 06 29 21.45 +01 18 37.3                      557
     K00AK5E  C2000 01 11.92530 06 29 21.52 +01 18 32.7          18.4 V      557
     K00AK5E  C2000 01 11.93623 06 29 22.56 +01 18 20.0          18.4 R      587
     K00AK5E  C2000 01 11.94683 06 29 23.02 +01 18 01.4                      587
     K00AK5E  C2000 01 11.99530 06 29 24.59 +01 16 30.0          17.8 R      046
     K00AK5E  C2000 01 11.99671 06 29 24.64 +01 16 27.4                      046
     K00AK5E  C2000 01 11.99904 06 29 24.75 +01 16 23.5                      046
     K00AK5E  C2000 01 12.00063 06 29 24.83 +01 16 20.4                      046
     K00AK5E  C2000 01 12.98292 06 30 38.93 +00 48 28.7                      046
     K00AK5E  C2000 01 12.98431 06 30 39.01 +00 48 26.2                      046
     K00AK5E  C2000 01 12.98528 06 30 39.06 +00 48 24.9                      046
     K00AK5E  C2000 01 12.98640 06 30 39.10 +00 48 23.0          18.0 R      046
     K00AK5E  C2000 01 14.00039 06 31 52.95 +00 22 14.3          18.4 R      046
     K00AK5E  C2000 01 14.00153 06 31 53.03 +00 22 11.9                      046
     K00AK5E  C2000 01 14.00250 06 31 53.08 +00 22 10.8                      046
     K00AK5E  C2000 01 14.00360 06 31 53.10 +00 22 09.2                      046
     K00AK5E  C2000 01 14.88014 06 32 59.95 +00 01 30.5                      557
     K00AK5E  C2000 01 14.88248 06 33 00.09 +00 01 27.5                      557
     K00AK5E  C2000 01 14.88480 06 33 00.17 +00 01 24.6          19.1 V      557
     K00AK5E  C2000 01 15.30610 06 33 27.42 -00 07 24.1                      693
     K00AK5E  C2000 01 15.30913 06 33 27.51 -00 07 28.2                      693
     K00AK5E FC2000 01 15.45640 06 33 43.10 -00 08 37.9                      422
     K00AK5E FC2000 01 15.45959 06 33 43.21 -00 08 41.0          19.3 R      422
     K00AK5E FC2000 01 15.46324 06 33 43.25 -00 08 46.7          19.0 R      422

Observer details:
046 Klet.  Observers J. Ticha, M. Tichy, Z. Moravec.  0.57-m f/5.2 reflector
    + CCD.
422 Loomberah.  Observer G. J. Garradd.  0.45-m f/5.4 reflector + CCD.
557 Ondrejov.  Observers P. Pravec, P. Kusnirak.  0.65-m f/3.6 reflector + CCD.
587 Sormano.  Observers F. Manca, A. Testa.  0.5-m reflector + CCD.
651 Grasslands Observatory, Tucson.  Observer J. E. McGaha.  0.62-m f/5.1
    reflector + CCD.
693 Catalina Station, Tucson.  Observer M. Hicks.  1.5-m reflector + CCD.
704 Lincoln Laboratory ETS, New Mexico.  Observers M. Blythe, F. Shelly,
    M. Bezpalko, M. Elowitz, R. Huber.  Measurers J. Stuart, H. Viggh,
    R. Sayer, J. B. Evans.  1.0-m f/2.15 reflector + CCD.
711 McDonald Observatory.  Observer J. G. Ries.  0.76-m reflector + CCD.

Orbital elements:
2000 AE205
Epoch 1999 Dec. 28.0 TT = JDT 2451540.5                 Williams
M  25.78080              (2000.0)            P               Q
n   0.78635877     Peri.  149.94995     +0.47094854     -0.87873458
a   1.1624891      Node   271.85581     +0.79309904     +0.46031088
e   0.1365487      Incl.    4.45714     +0.38626595     +0.12625149
P   1.25           H   23.3           G   0.15
From 66 observations 2000 Jan. 8-15.

Ephemeris:
2000 AE205               a,e,i = 1.16, 0.14, 4                   q = 1.0038
Date    TT    R. A. (2000) Decl.     Delta      r     Elong.  Phase     V
2000 01 07    06 22.62   +04 25.6    0.059    1.038   158.7    20.1    18.2
2000 01 12    06 29.46   +01 17.9    0.069    1.046   154.6    23.8    18.7
2000 01 17    06 35.47   -00 39.9    0.080    1.055   151.3    26.6    19.1
2000 01 22    06 41.14   -01 48.8    0.092    1.064   148.6    28.9    19.5
2000 01 27    06 46.72   -02 22.6    0.105    1.073   146.1    30.8    19.9
2000 02 01    06 52.44   -02 30.9    0.119    1.083   143.7    32.6    20.2
2000 02 06    06 58.50   -02 20.8    0.133    1.094   141.5    34.2    20.5
2000 02 11    07 05.06   -01 58.1    0.149    1.104   139.3    35.7    20.8
2000 02 16    07 12.17   -01 27.5    0.166    1.115   137.1    37.1    21.1
2000 02 21    07 19.80   -00 52.6    0.183    1.126   135.0    38.4    21.4
2000 02 26    07 27.91   -00 15.6    0.202    1.137   132.8    39.7    21.7
2000 03 02    07 36.49   +00 21.5    0.221    1.148   130.7    40.9    21.9
2000 03 07    07 45.55   +00 57.1    0.242    1.159   128.5    42.1    22.2

Gareth V. Williams           (C) Copyright 2000 MPC           M.P.E.C. 2000-B03

Read MPEC 2000-B02 Read MPEC 2000-B04


Our Web policy. Index to the CBAT/MPC/ICQ pages.


Valid HTML 4.01!